Погода в Каралде

Россия / Кемеровская область (Кузбасс)     54°23′25″N   86°59′08″E
темп.,
°C
ветер,
м/с
пор.,
м/с
влажн.,
%
обл.,
%
осадки,
мм/ч
давл.,
гПа
погр.,
м
25 января, вт
вт2501:00−20юв1110096 0.0 104011
04:00−23ююв2110078 0.0 103910
07:00−24ююв2110094 0.0 103811
10:00−18ю2397100 0.0 103688
13:00−14ю2491100 0.0 1035250
16:00−12ю2494100 0.6 1033277
19:00−12ю2596100 1.1 1033266
22:00−13ю2596100 0.3 1033209
26 января, ср
ср2601:00−15ю2596100 0.3 1033158
04:00−16ююв2596100 0.0 1032124
07:00−16ю2694100 0.0 1032211
10:00−15ююв2692100 0.0 1031210
13:00−13ю3593100 0.3 1030278
16:00−12ююв3794100 0.8 1029334
19:00−11ююв2795100 1.3 1030370
22:00−11ю269697 0.6 1031293
27 января, чт
чт2701:00−12ююв249798 1.0 1031108
04:00−12ююз269699 0.3 1032184
07:00−13ююз2796100 0.4 1034210
10:00−13ю3796100 0.2 1036244
13:00−11ююз3591100 0.4 1037386
16:00−10ююз3592100 0.3 1037571
19:00−13ю2497100 0.4 103984
22:00−14ю2497100 0.1 103983
28 января, пт
пт2801:00−16ююв1198100 0.3 103917
04:00−17юв1199100 0.1 103910
07:00−19юв1110096 0.2 10399
10:00−17вюв119987 0.1 103925
13:00−12юв139182 0.1 1037275
16:00−11ююз119173 0.0 1036141
19:00−19с0010081 0.0 10379
22:00−22всв11100100 0.0 10369
29 января, сб
сб2901:00−24всв11100100 0.0 10369
04:00−25всв11100100 0.0 10369
07:00−26сз01100100 0.0 10379
10:00−25вюв1110094 0.0 103711
13:00−14вюв01865 0.0 1035138
16:00−12сз11885 0.0 1034123
19:00−21зсз1110036 0.0 10369
22:00−23всв0010064 0.0 10369